This is the latest recevied weather packets stored in our database for station/object KD7CIH. If no packets are shown the sender has not sent any weather packets the latest 10 day(s).
| Time | Temp. | Humidity | Pressure | Rain* | Wind** | Luminosity | Snow |
|---|---|---|---|---|---|---|---|
| 1788034866 | 13.89° C | 85% | 1018.9 hPa | 1.27 mm | - | - | - |
| 1788034692 | 13.89° C | 85% | 1019 hPa | 1.52 mm | - | - | - |
| 1788034266 | 13.89° C | 82% | 1018.6 hPa | 2.03 mm | - | - | - |
| 1788033967 | 13.89° C | 81% | 1018.6 hPa | 2.29 mm | - | - | - |
| 1788033666 | 13.89° C | 80% | 1018.4 hPa | 2.03 mm | - | - | - |
| 1788033367 | 13.89° C | 80% | 1018.4 hPa | 1.78 mm | - | - | - |
| 1788033197 | 13.89° C | 79% | 1018.7 hPa | 1.78 mm | - | - | - |
| 1788032894 | 13.89° C | 80% | 1018.8 hPa | 2.03 mm | - | - | - |
| 1788032595 | 13.89° C | 81% | 1018.6 hPa | 2.03 mm | - | - | - |
| 1788032167 | 13.89° C | 81% | 1018.7 hPa | 2.29 mm | - | - | - |
| 1788031867 | 13.89° C | 81% | 1018.6 hPa | 2.54 mm | - | - | - |
| 1788031566 | 13.89° C | 82% | 1018.6 hPa | 2.54 mm | - | - | - |
| 1788031268 | 13.89° C | 82% | 1018.8 hPa | 2.54 mm | - | - | - |
| 1788030967 | 13.89° C | 80% | 1018.7 hPa | 2.54 mm | - | - | - |
| 1788030668 | 13.89° C | 81% | 1019.4 hPa | 2.03 mm | - | - | - |
| 1788030367 | 14.44° C | 81% | 1019.5 hPa | 1.52 mm | - | - | - |
| 1788030069 | 14.44° C | 81% | 1019.2 hPa | 1.78 mm | - | - | - |
| 1788029767 | 13.89° C | 82% | 1019 hPa | 1.78 mm | - | - | - |
| 1788029466 | 13.89° C | 82% | 1018.9 hPa | 2.03 mm | - | - | - |
| 1788029166 | 13.89° C | 81% | 1018.8 hPa | 1.78 mm | - | - | - |
| 1788028869 | 13.89° C | 82% | 1018.8 hPa | 1.78 mm | - | - | - |
| 1788028567 | 13.89° C | 85% | 1018.8 hPa | 1.52 mm | - | - | - |
| 1788028267 | 13.89° C | 82% | 1018.8 hPa | 1.27 mm | - | - | - |
| 1788027965 | 13.89° C | 79% | 1018.8 hPa | 1.02 mm | - | - | - |
| 1788027794 | 13.89° C | 78% | 1018.6 hPa | 0.76 mm | - | - | - |
* Rain latest hour (hover to see other rain measurements)
** Current wind speed in m/s (hover to see current wind gust speed)